TimeMDT,TemperatureF,Dew PointF,Humidity,Sea Level PressureIn,VisibilityMPH,Wind Direction,Wind SpeedMPH,Gust SpeedMPH,PrecipitationIn,Events,Conditions,WindDirDegrees,DateUTC
12:51 AM,44.1,34.0,68,29.93,10.0,Calm,Calm,-,N/A,,Clear,0,2013-06-20 06:51:00
1:51 AM,45.0,34.0,65,29.93,10.0,Calm,Calm,-,N/A,,Clear,0,2013-06-20 07:51:00
2:51 AM,44.1,35.1,71,29.95,10.0,Calm,Calm,-,N/A,,Clear,0,2013-06-20 08:51:00
3:51 AM,42.1,34.0,73,29.96,10.0,Calm,Calm,-,N/A,,Clear,0,2013-06-20 09:51:00
4:51 AM,39.0,34.0,82,29.96,10.0,Calm,Calm,-,N/A,,Clear,0,2013-06-20 10:51:00
5:51 AM,37.0,34.0,89,29.99,10.0,Calm,Calm,-,N/A,,Clear,0,2013-06-20 11:51:00
6:51 AM,39.9,35.1,83,29.99,10.0,Calm,Calm,-,N/A,,Clear,0,2013-06-20 12:51:00
7:51 AM,45.0,36.0,71,30.00,10.0,Calm,Calm,-,N/A,,Clear,0,2013-06-20 13:51:00
8:51 AM,48.9,34.0,56,30.00,10.0,Calm,Calm,-,N/A,,Clear,0,2013-06-20 14:51:00
9:51 AM,55.0,35.1,47,29.99,10.0,North,4.6,-,N/A,,Clear,350,2013-06-20 15:51:00
10:51 AM,57.0,36.0,45,29.98,10.0,Variable,4.6,-,N/A,,Clear,0,2013-06-20 16:51:00
11:51 AM,61.0,33.1,35,29.97,10.0,NNW,5.8,-,N/A,,Clear,340,2013-06-20 17:51:00
12:51 PM,66.9,28.0,23,29.94,10.0,NE,6.9,-,N/A,,Clear,40,2013-06-20 18:51:00
1:51 PM,68.0,26.1,21,29.91,10.0,ENE,4.6,-,N/A,,Clear,60,2013-06-20 19:51:00
2:51 PM,69.1,25.0,19,29.90,10.0,Calm,Calm,-,N/A,,Clear,0,2013-06-20 20:51:00
3:51 PM,71.1,25.0,18,29.88,10.0,NE,5.8,-,N/A,,Clear,50,2013-06-20 21:51:00
4:51 PM,72.0,24.1,17,29.88,10.0,West,8.1,-,N/A,,Clear,270,2013-06-20 22:51:00
5:51 PM,73.0,24.1,16,29.88,10.0,Variable,4.6,-,N/A,,Clear,0,2013-06-20 23:51:00
6:51 PM,71.1,24.1,17,29.86,10.0,West,5.8,-,N/A,,Clear,260,2013-06-21 00:51:00
7:51 PM,70.0,28.0,21,29.85,10.0,SW,4.6,-,N/A,,Clear,220,2013-06-21 01:51:00
8:51 PM,66.9,28.0,23,29.85,10.0,Calm,Calm,-,N/A,,Clear,0,2013-06-21 02:51:00
9:51 PM,57.9,32.0,37,29.86,10.0,East,8.1,-,N/A,,Clear,90,2013-06-21 03:51:00
10:51 PM,55.9,30.9,39,29.87,10.0,NW,9.2,-,N/A,,Clear,320,2013-06-21 04:51:00
11:51 PM,52.0,36.0,54,29.87,10.0,WNW,4.6,-,N/A,,Clear,290,2013-06-21 05:51:00